Theta_e
319 317 317 317 315 318 319 319 319 318 318 320 320 318 319 331 341 341 340 340 341 341 342 343 342 340 341 343 331 325 325 325 324 325 328 330 331 332 333 333 332 333 331 325
317 318 317 317 317 317 318 320 319 319 319 319 318 320 318 330 338 340 339 338 338 339 339 336 331 338 341 336 327 324 325 325 326 329 330 332 333 334 334 333 330 323 318 313
318 320 319 320 321 321 319 320 321 321 320 318 319 319 317 321 330 335 336 337 338 338 336 330 329 331 332 326 325 323 323 327 330 331 333 334 334 334 332 329 319 314 310 308
318 318 320 321 321 320 322 319 320 322 320 321 318 320 319 318 323 323 325 327 331 331 332 328 326 327 326 326 326 326 328 330 331 332 333 333 331 331 324 315 310 308 308 309
319 321 321 321 321 320 320 320 320 321 319 320 319 319 318 315 318 316 331 333 330 326 325 325 325 327 328 328 328 330 330 330 330 331 331 328 329 322 312 308 308 308 309 310
318 320 320 321 320 319 320 319 316 315 315 319 318 318 318 321 321 320 332 330 331 328 326 327 328 328 328 328 329 329 329 330 332 331 329 322 314 310 308 308 309 309 309 308
319 319 319 321 321 318 317 316 318 320 318 320 318 319 319 324 326 331 330 330 327 327 325 327 328 327 326 327 329 330 332 333 332 328 323 310 309 308 308 308 308 308 306 306
319 320 318 319 319 319 318 317 319 322 320 319 318 322 324 325 329 329 328 327 323 324 325 327 325 325 327 330 331 332 332 326 323 317 313 308 308 308 308 307 306 306 306 306
318 319 319 320 320 320 320 319 317 317 316 319 317 325 324 324 326 326 324 323 319 320 324 325 325 327 327 327 327 327 324 319 315 309 307 307 307 307 306 305 305 305 305 306
318 321 320 321 319 317 319 317 320 316 321 322 319 323 325 327 325 325 322 320 321 324 323 323 323 324 324 323 324 325 324 318 311 307 307 307 307 305 304 304 304 304 304 305
316 318 320 321 321 318 317 318 316 317 318 320 320 320 321 325 324 325 322 322 323 322 322 322 321 319 321 320 319 318 320 322 308 307 307 306 305 304 304 303 302 302 303 304
316 316 319 320 319 322 320 321 316 318 323 319 320 320 323 323 325 325 323 323 323 324 321 319 319 320 321 319 312 308 309 307 307 307 305 304 303 302 301 300 301 301 301 304
317 317 319 320 321 322 325 324 319 316 318 323 322 322 322 324 325 325 322 322 322 321 319 318 319 319 319 315 312 308 306 306 305 304 303 303 301 300 299 298 297 297 298 301
321 317 319 322 321 321 325 325 321 320 322 322 322 323 325 324 325 325 323 321 320 319 317 317 317 318 319 312 306 305 305 305 304 302 301 301 299 298 297 298 297 296 296 297
316 322 323 324 325 324 325 326 324 324 321 324 323 323 321 324 323 327 326 321 318 316 316 316 317 320 313 306 305 306 305 303 301 301 301 301 301 299 299 300 299 297 299 301
315 322 323 325 324 323 325 324 324 324 322 322 322 322 318 320 323 327 325 322 317 317 316 317 319 316 309 305 305 304 303 299 300 301 301 302 302 300 299 300 300 297 297 299
320 321 319 324 325 321 322 321 323 322 322 322 324 321 321 323 324 325 325 323 320 318 318 318 319 314 309 312 307 302 299 298 298 301 302 302 302 299 299 299 300 299 298 300
319 319 317 323 320 324 319 320 321 321 323 322 322 324 322 322 323 325 326 325 321 321 319 319 315 312 306 304 304 300 299 301 301 302 302 302 301 300 299 299 300 300 299 298
316 318 320 323 321 321 323 322 322 322 321 321 323 325 322 321 323 323 325 325 324 322 320 317 312 307 305 302 301 298 300 302 302 302 302 299 299 299 299 299 299 300 300 298
318 316 321 319 324 325 321 319 322 319 321 322 323 323 321 321 324 320 323 323 322 319 317 315 307 305 308 305 300 298 300 301 301 301 301 300 299 298 298 299 299 299 300 299
319 318 321 318 322 320 317 321 321 323 317 323 323 324 323 321 321 321 320 318 318 316 314 307 309 307 303 300 298 299 300 300 300 300 300 300 300 299 298 298 299 299 300 299
318 319 319 317 321 324 320 323 322 320 321 325 323 323 324 323 321 319 317 316 315 313 310 308 305 304 302 300 300 300 300 300 300 300 300 300 299 300 298 298 298 299 299 300
318 315 318 318 318 317 323 323 324 323 326 325 325 324 324 323 321 317 316 314 312 312 307 306 303 302 303 303 302 299 298 298 300 300 300 300 298 298 297 297 298 299 300 300
320 319 319 319 320 321 324 325 325 325 323 322 321 322 323 323 319 316 314 313 311 306 305 302 302 304 303 304 302 299 300 300 299 300 300 300 299 298 297 298 298 299 300 300
317 319 317 317 320 324 325 325 325 322 321 321 321 322 322 321 317 316 316 313 308 306 303 303 304 305 304 304 303 300 300 300 300 300 299 299 297 297 297 297 298 298 299 299
316 317 318 319 320 321 323 325 324 322 322 322 321 321 321 320 318 317 315 310 308 306 304 305 306 306 305 305 301 301 301 300 300 300 299 298 298 297 297 297 298 298 298 299
Wind_Speed
3 4 3 6 5 3 2 3 3 5 5 4 3 5 8 15 21 21 27 32 39 43 40 41 42 43 44 45 40 35 31 28 27 25 25 24 21 19 18 20 22 26 29 32
5 3 7 3 4 4 3 1 5 5 3 1 4 7 5 7 25 32 31 31 37 38 37 35 36 45 47 46 40 36 32 29 27 24 24 19 16 15 18 21 26 27 30 32
6 4 7 4 3 3 4 4 4 6 4 4 5 7 7 2 2 8 13 20 31 39 37 34 34 39 44 39 34 31 30 27 24 22 18 14 14 15 20 26 26 28 31 32
5 4 4 3 4 6 3 6 5 3 2 1 2 4 4 5 2 6 6 14 25 29 30 33 31 32 31 28 29 28 24 22 18 11 9 12 14 19 25 25 27 28 29 29
7 4 3 2 3 4 7 1 4 3 3 4 5 4 6 6 7 10 19 23 19 18 15 21 24 26 21 20 22 19 17 15 8 3 9 14 21 24 23 24 26 26 25 27
7 2 2 4 1 5 4 5 8 5 3 3 4 4 5 4 6 2 8 11 14 13 13 19 22 23 23 22 20 14 7 4 3 12 16 22 22 22 22 22 23 24 24 24
3 4 3 4 4 2 5 6 2 3 4 5 2 3 5 5 4 4 9 12 15 17 15 20 22 26 25 22 18 11 3 9 19 17 19 20 22 21 20 20 22 21 20 22
6 6 6 4 8 6 4 7 6 5 4 4 3 3 4 2 9 12 10 10 11 14 17 22 27 28 25 22 18 11 13 5 9 13 16 18 18 17 19 19 18 15 17 21
5 5 4 5 4 6 3 3 3 8 4 3 2 2 5 4 5 10 11 10 11 15 23 27 27 25 21 16 13 8 1 6 12 15 13 14 15 17 16 15 14 14 15 18
7 1 2 3 5 4 3 4 4 3 5 4 4 2 4 4 5 6 8 14 14 19 23 24 22 17 14 9 6 2 4 9 12 12 12 13 14 13 13 13 14 14 15 16
5 4 5 1 1 6 2 0 6 6 4 6 3 5 6 7 7 9 14 18 20 22 23 22 19 16 12 9 3 2 8 12 10 10 11 11 10 12 13 15 16 17 16 15
8 6 4 6 3 2 2 5 5 5 4 2 3 5 3 6 4 15 21 21 21 22 22 20 17 11 5 2 3 5 8 9 7 7 9 9 11 13 15 16 16 18 17 14
8 1 2 6 5 1 4 2 4 6 3 5 5 5 2 5 4 15 21 23 23 23 24 20 16 12 6 1 4 4 4 5 7 10 9 9 12 15 15 18 20 20 18 15
7 3 6 9 6 3 4 3 3 5 4 5 5 3 5 7 7 14 21 22 23 25 23 20 15 9 2 3 1 3 4 7 8 9 9 10 13 13 17 21 24 21 17 14
4 4 4 4 3 4 4 3 2 2 5 5 3 7 6 12 14 25 26 22 23 25 24 20 14 7 4 1 2 4 6 7 8 7 8 10 11 13 18 23 25 19 15 13
3 1 2 4 3 6 4 1 4 4 5 3 4 6 4 5 16 18 26 25 26 26 26 19 12 7 1 2 5 7 8 7 7 6 8 10 10 13 18 22 26 21 15 14
3 6 2 3 1 4 3 5 5 1 2 5 2 6 3 3 7 18 25 27 26 26 24 20 12 7 4 5 4 5 6 7 6 5 7 10 11 14 15 19 23 24 20 16
6 4 3 3 3 1 5 3 1 4 2 3 4 4 3 4 7 8 12 23 23 21 21 18 14 6 3 3 2 4 5 5 6 7 8 10 11 12 13 16 20 23 24 22
3 5 3 5 4 4 1 4 6 6 6 6 5 2 2 8 3 4 11 15 17 16 19 16 9 6 4 5 4 4 4 5 6 6 9 11 11 11 13 15 17 21 25 27
5 6 5 2 4 6 8 3 7 5 4 10 10 8 9 9 2 4 10 13 15 16 17 14 11 8 2 2 2 5 4 6 6 7 9 10 12 14 13 14 16 18 22 26
3 3 5 3 3 6 7 6 6 4 7 13 13 11 15 6 5 3 10 14 15 18 17 14 8 5 6 4 3 4 5 6 7 7 9 11 13 13 13 14 15 16 17 21
6 6 3 3 3 5 8 5 8 7 4 13 11 9 13 13 4 10 14 18 21 20 16 12 10 9 7 4 5 3 6 7 7 7 10 12 13 12 14 14 15 15 15 18
2 5 4 7 6 4 8 4 9 7 12 10 7 6 9 13 12 14 19 20 18 15 14 12 11 10 6 4 5 5 8 9 6 6 10 12 12 13 15 16 14 15 13 15
1 2 3 2 2 4 4 5 10 9 8 7 2 3 7 11 15 19 21 19 16 14 15 13 12 8 5 3 4 4 7 9 7 7 11 11 13 13 13 16 15 15 13 13
2 3 3 2 4 2 5 7 10 9 7 6 5 5 7 11 17 19 20 18 16 16 15 12 8 6 3 3 3 2 5 9 7 9 11 11 13 13 14 15 16 15 14 13
5 5 4 4 4 2 3 6 9 8 6 5 4 7 8 9 15 17 17 18 16 14 13 11 7 3 1 3 3 3 5 8 10 11 14 10 13 14 14 17 18 16 14 14
Wind_Direction
31 66 215 237 188 154 139 148 229 246 248 222 229 257 254 224 202 205 211 217 219 224 228 228 226 224 224 223 220 219 214 207 208 211 219 227 236 251 265 277 286 295 297 298
19 242 224 187 172 188 203 259 276 287 317 160 9 301 298 215 213 205 211 221 229 232 232 233 227 222 221 221 218 218 214 212 211 218 227 232 243 260 279 295 299 298 299 302
166 230 113 167 199 194 211 191 234 208 331 36 7 325 346 343 115 223 239 240 244 242 239 233 227 220 220 221 217 216 211 212 214 219 227 242 260 276 293 303 296 302 310 315
222 245 206 162 237 169 295 211 206 231 105 190 47 274 328 353 266 232 324 299 272 262 254 241 227 218 217 214 212 210 207 207 207 210 242 259 278 302 311 304 311 315 321 325
240 176 142 184 164 145 242 63 145 77 81 62 345 73 270 4 25 9 3 348 339 293 261 223 211 206 190 175 186 182 183 179 177 217 287 309 319 317 309 315 318 322 324 325
215 239 231 212 178 186 146 65 44 52 70 39 270 123 302 2 290 312 18 25 44 75 141 173 174 176 165 158 155 144 131 134 273 285 306 323 320 315 319 323 325 329 333 342
327 249 238 191 311 62 79 63 354 3 19 216 318 62 246 306 343 45 41 52 71 93 137 150 151 149 146 144 135 113 26 270 296 296 324 320 320 325 328 332 334 343 354 360
174 316 176 174 186 184 170 153 152 189 180 245 78 215 256 7 104 90 83 88 98 117 136 139 141 141 143 149 159 183 230 279 311 323 321 320 326 335 335 339 352 357 4 5
139 264 279 211 147 130 170 170 173 101 11 74 240 315 308 122 92 100 108 113 108 128 146 152 153 155 157 159 159 155 121 332 334 329 328 328 336 336 344 353 354 1 4 2
205 352 243 280 103 46 143 156 81 23 132 191 293 244 232 199 154 145 139 146 156 161 161 160 158 153 147 132 112 77 336 326 332 330 338 342 338 353 352 349 347 349 350 349
132 123 271 335 118 178 141 171 59 110 115 150 171 259 211 195 176 182 181 180 174 170 169 165 158 152 150 140 137 317 331 326 336 345 336 347 356 358 350 345 340 337 337 332
195 156 193 224 291 247 144 147 128 118 212 73 147 267 196 187 129 183 187 188 185 183 175 171 167 158 166 187 45 14 350 3 346 338 2 10 4 355 343 343 342 340 335 326
177 205 100 351 354 25 97 93 118 110 97 184 128 260 332 187 186 197 189 195 192 186 182 179 176 182 186 358 340 335 359 358 12 18 25 7 356 353 354 351 340 333 323 325
108 99 165 209 197 147 140 139 150 118 115 164 213 244 247 234 214 196 206 205 200 194 189 183 189 191 234 271 349 23 5 13 17 23 9 0 2 4 1 356 348 340 333 328
93 111 112 79 75 98 111 131 187 97 142 138 222 208 246 215 208 210 210 205 201 199 193 194 194 212 214 8 351 344 3 12 11 8 357 2 8 5 7 0 359 349 349 343
34 145 118 58 38 109 115 133 192 193 154 248 153 251 244 307 207 204 210 205 198 203 203 197 204 203 188 43 350 350 357 355 347 360 352 353 352 360 6 0 2 357 353 345
87 136 96 184 314 176 16 234 183 149 146 126 170 242 329 295 228 206 207 211 208 210 206 200 205 202 204 297 319 335 343 345 3 2 339 344 351 3 352 1 3 13 9 355
123 95 79 128 39 84 254 343 8 138 134 204 236 240 235 243 204 231 226 224 216 219 205 199 198 195 147 137 283 1 348 18 17 6 342 342 355 353 345 350 358 9 9 360
55 120 88 132 172 283 194 196 146 169 243 195 215 174 134 135 125 261 222 224 228 217 201 191 175 162 142 98 42 357 347 349 353 345 352 358 357 344 342 337 351 0 5 8
53 68 108 124 138 199 235 241 181 121 288 193 189 187 172 162 163 252 205 211 202 191 181 174 166 150 171 19 26 358 322 318 332 349 354 349 346 351 335 333 345 352 1 9
62 31 136 120 186 288 249 213 149 116 236 180 187 195 185 193 211 181 178 175 180 172 169 163 165 165 123 100 40 351 329 335 346 342 345 345 344 341 328 333 341 343 350 0
154 136 169 96 93 262 189 119 162 206 160 176 183 201 206 214 159 165 165 162 163 164 166 162 144 135 134 98 54 18 1 346 347 344 347 350 343 328 330 332 336 335 337 350
151 173 178 170 209 257 204 240 209 194 170 175 196 214 215 202 186 173 162 162 165 168 157 147 149 149 119 78 44 36 21 4 350 354 351 347 345 335 337 338 339 339 330 342
100 115 147 93 265 269 236 204 149 140 140 145 144 174 180 184 177 163 163 166 170 166 161 160 155 147 116 85 40 46 17 6 15 5 351 345 334 335 340 352 352 347 339 335
180 124 144 263 284 281 201 163 151 135 139 149 128 118 146 164 165 168 170 172 170 167 165 165 158 139 115 59 20 29 10 11 5 343 338 338 339 339 341 339 339 343 345 337
187 168 155 216 210 198 215 173 160 154 151 150 149 141 144 166 169 172 174 174 173 172 164 161 167 150 60 0 356 4 339 0 350 337 337 337 344 345 341 348 351 341 333 334